{"data":{"norad_id":39422,"epoch":"2026-09-20T04:23:50.798976Z","epoch_age_seconds":41777,"freshness":"FRESH","line1":"1 39422U 13066G   26263.18322684  .00002039  00000+0  15503-3 0  9999","line2":"2 39422  97.6343 231.6102 0011455  74.9835 285.2657 15.03204674698472","mean_motion":15.03204674,"eccentricity":0.0011455,"inclination_deg":97.6343,"raan_deg":231.6102,"arg_perigee_deg":74.9835,"mean_anomaly_deg":285.2657,"bstar":0.00015503,"rev_number":69847,"period_min":95.79533811375,"perigee_km":549.07789072186,"apogee_km":564.96634025544,"semimajor_km":6935.1591154886,"source":"CELESTRAK","updated_at":"2026-09-20T09:00:47.146512Z"}}